{"data":{"norad_id":60595,"epoch":"2026-09-21T21:13:21.587232Z","epoch_age_seconds":68861,"freshness":"FRESH","line1":"1 60595U 24150N   26264.88427763 -.00002440  00000+0 -66923-4 0  9993","line2":"2 60595  53.1593 114.7287 0001201  84.8210 275.2928 15.31690521118097","mean_motion":15.31690521,"eccentricity":0.0001201,"inclination_deg":53.1593,"raan_deg":114.7287,"arg_perigee_deg":84.821,"mean_anomaly_deg":275.2928,"bstar":-6.6923e-5,"rev_number":11809,"period_min":94.013769769879,"perigee_km":469.94569825638,"apogee_km":471.59080529786,"semimajor_km":6848.9052517771,"source":"CELESTRAK","updated_at":"2026-09-22T09:00:49.273801Z"}}